Skip Page Navigation
NASA JPL Caltech
NASA Logo - Jet Propulsion Laboratory + View the NASA Portal
+ Near-Earth Object (NEO) Program
Search JPL
JPL Home Earth Solar System Stars & Galaxies Technology
JPL Solar System Dynamics
BODIES ORBITS EPHEMERIDES TOOLS PHYSICAL DATA DISCOVERY FAQ SITE MAP
JPL Small-Body Database Browser
Search: [ help ]  
114239 Bermarmi (2002 WN)
Classification: Main-belt Asteroid          SPK-ID: 2114239
Ephemeris | Orbit Diagram | Orbital Elements | Physical Parameters | Discovery Circumstances | Close-Approach Data ]

[ show orbit diagram ]
Orbital Elements at Epoch 2457000.5 (2014-Dec-09.0) TDB
Reference: JPL 5 (heliocentric ecliptic J2000)
 Element Value Uncertainty (1-sigma)   Units 
e .1287372134952064 8.4053e-08  
a 2.625199005395985 4.3171e-08 AU
q 2.287238200570918 2.3364e-07 AU
i 11.697067756155 1.1655e-05 deg
node 288.9699778571354 4.1393e-05 deg
peri 266.5432428746215 6.5547e-05 deg
M 169.9664589859829 5.8482e-05 deg
tp 2456266.995978477518
(2012-Dec-05.49597848)
0.00024416 JED
period 1553.609161027886
4.25
3.8323e-05
1.049e-07
d
yr
n .2317185100542403 5.7158e-09 deg/d
Q 2.963159810221052 4.8728e-08 AU
  Orbit Determination Parameters
   # obs. used (total)      248  
   data-arc span      4797 days (13.13 yr)  
   first obs. used      2001-08-10  
   last obs. used      2014-09-28  
   planetary ephem.      DE431  
   SB-pert. ephem.      SB431-BIG16  
   condition code      0  
   fit RMS      .52856  
   data source      ORB  
   producer      Otto Matic  
   solution date      2014-Oct-09 17:26:39  

Additional Information
 Earth MOID = 1.32367 AU 
 T_jup = 3.362 
[ show covariance matrix ]

Ephemeris | Orbit Diagram | Orbital Elements | Physical Parameters | Discovery Circumstances | Close-Approach Data ]

Physical Parameter Table
Parameter Symbol Value Units Sigma Reference Notes
absolute magnitude H 15.2 mag n/a MPO299650  

114239 Bermarmi           Discovered 2002 Nov. 21 by J. Young at Table Mountain Observatory.
This minor planet is named in memory of Bernard (1911-1988) and Mary (1912-1996), parents of the discoverer, and in honor of his brother Michael (b. 1937).
NOTE: some special characters may not display properly (any characters within {} are an attempt to place the proper accent above a character)
Reference: 20070601/MPCPages.arcLast Updated: 2007-06-06

[ show close-approach data ]
Alternate Designations
 2002 WN = 2001 QZ221 
Ephemeris | Orbit Diagram | Orbital Elements | Physical Parameters | Discovery Circumstances | Close-Approach Data ]
ABOUT SSD CREDITS/AWARDS PRIVACY/COPYRIGHT GLOSSARY LINKS
FirstGov 2014-Oct-30 23:36 UT
(server date/time)  
NASA Home Page
Site Manager:   Donald K. Yeomans
Webmaster  Alan B. Chamberlin